Voltar ao catálogo

HULIANWANG DIGUI-142

AtivoComunicaçõesLEO
NORAD 67440·PAYLOAD·🇨🇳 China

Lançado Jan 13, 2026 de Wenchang Space Launch Site

Loading…

Próximas Passagens (próximas 24 horas)

TLE

AtualizadoSource: Space-Track

Época: Sep 14, 2026, 16:16 UTC

1 67440U 26007F   26257.67781655 -.00000080  00000-0  95974-4 0  9990
2 67440  50.0113 124.8550 0000434   3.9182 356.1694 13.29330297 32695

Acompanhe HULIANWANG DIGUI-142 em tempo real com AllMySat

Download on the App Store